Location: Gull Harbor
(47.1000°N, 122.9000°W)
Time: 02:18:50
(UTC-08:00)

Tiangong 1 - Visible Passes

Search period start: 21 November 2017 00:00
Search period end: 01 December 2017 00:00
Orbit: 285 x 308 km, 42.8° (Epoch: 20 November)

Date Brightness Start Highest point End Pass type
(mag) Time Alt. Az. Time Alt. Az. Time Alt. Az.
26 Nov 2.9 17:57:12 10° SSW 17:58:40 14° SSE 17:58:55 14° SSE visible
27 Nov 2.5 18:02:47 10° SW 18:04:47 20° SSE 18:04:56 20° SSE visible
28 Nov 2.2 18:08:35 10° SW 18:10:49 26° S 18:10:49 26° S visible
29 Nov 2.1 18:14:26 10° WSW 18:16:34 29° S 18:16:34 29° S visible
30 Nov 2.3 18:20:16 10° WSW 18:22:14 28° SSW 18:22:14 28° SSW visible
